Regional Weather Roundup
Issued by NWS

Home | Current Version | Previous Version | Graphics & Text | Print | Product List | Glossary On
Versions: 1 2 3 4 5 6 7 8 9 10 11 12 13 14 15 16 17 18 19 20 21 22 23 24 25 26 27 28 29 30 31 32 33 34 35 36 37 38 39 40 41 42 43 44 45 46 47 48 49 50
000
ASUS43 KFSD 052310
RWRSD

WEATHER ROUNDUP FOR SOUTH DAKOTA
NATIONAL WEATHER SERVICE SIOUX FALLS SD
600 PM CDT THU MAY 05 2016

NOTE: "FAIR" INDICATES FEW OR NO CLOUDS BELOW 12,000 FEET WITH NO
SIGNIFICANT WEATHER AND/OR OBSTRUCTIONS TO VISIBILITY.


SDZ001>005-009-010-012>017-060000-
NORTHWEST AND NORTH CENTRAL SOUTH DAKOTA

CITY           SKY/WX    TMP DP  RH WIND       PRES   REMARKS
BUFFALO          N/A     86  35  16 SW7       29.80F
FAITH            N/A     81  48  31 SW5       29.84F
MOBRIDGE       SUNNY     87  32  14 S13       29.78F
$$

SDZ012>016-024>037-041>051-057-063-072>074-060000-
SOUTHWEST AND SOUTH CENTRAL SOUTH DAKOTA

CITY           SKY/WX    TMP DP  RH WIND       PRES   REMARKS
RAPID CTY ARPT CLOUDY    81  45  28 SE9       29.88S
PIERRE         SUNNY     85  50  29 S17       29.81F
CUSTER         CLOUDY    76  30  18 SW9       30.01F
ELLSWORTH AFB  MOSUNNY   82  47  29 SE8       29.88S
PHILIP         SUNNY     87  47  24 VRB6      29.82S
PINE RIDGE     SUNNY     84  36  18 W7        29.89F
WINNER         LGT RAIN  85  47  26 S16       29.87F
$$

SDZ004>011-016>023-039-040-060000-
NORTHEAST SOUTH DAKOTA

CITY           SKY/WX    TMP DP  RH WIND       PRES   REMARKS
ABERDEEN       SUNNY     88  35  15 SW21G26   29.83F
WATERTOWN      SUNNY     81  42  25 SW13      29.90F
BROOKINGS      SUNNY     80  44  27 S12       29.92F
SISSETON         N/A     86  35  16 SW13      29.83F
$$

SDZ017-020-022-023-036>040-048>070-060000-
SOUTHEAST SOUTH DAKOTA

CITY           SKY/WX    TMP DP  RH WIND       PRES   REMARKS
SIOUX FALLS    MOSUNNY   75  48  38 SW9       29.94F
HURON          SUNNY     83  40  21 S15G23    29.87F
CHAMBERLAIN    SUNNY     83  53  35 S15G21    29.88F
MITCHELL       SUNNY     83  41  22 S14       29.90F
YANKTON        SUNNY     81  41  24 SE8       29.92F
$$

ABBREVIATIONS USED IN REMARKS
   TC - TEMPERATURE IN CELSIUS
  WCI - WIND CHILL INDEX
   HX - HEAT INDEX
  VSB - VISIBILITY




USA.gov is the U.S. government's official web portal to all federal, state and local government web resources and services.